Regional Weather Roundup
Issued by NWS Cleveland, OH

Home | Current Version | Previous Version | Text Only | Print | Product List | Glossary Off
Versions: 1 2 3 4 5 6 7 8 9 10 11 12 13 14 15 16 17 18 19 20 21 22 23 24 25 26 27 28 29 30 31 32 33 34 35 36 37 38 39 40 41 42 43 44 45 46 47 48 49 50

000
ASUS41 KCLE 240702
RWRCLE
OHIO REGIONAL WEATHER ROUNDUP
NATIONAL WEATHER SERVICE CLEVELAND, OH
300 AM EDT THU MAY 24 2018

NOTE: "FAIR" INDICATES FEW OR NO CLOUDS BELOW 12,000 FEET WITH NO
SIGNIFICANT WEATHER AND/OR OBSTRUCTIONS TO VISIBILITY.

OHZ001>008-015>018-024>027-034-035-043-044-240800-
   NORTHWEST OHIO

CITY           SKY/WX    TMP DP  RH WIND       PRES   REMARKS
DEFIANCE       FAIR      55  52  89 CALM      30.20S
FINDLAY        FAIR      56  51  84 CALM      30.19F
TOLEDO EXPRESS FAIR      56  55  97 CALM      30.20S
TOLEDO EXEC    FAIR      59  51  75 CALM      30.20F
LIMA           FAIR      57  52  83 CALM      30.20F
$$

OHZ009>014-019>023-028>033-038-089-240800-
   NORTHEAST OHIO

CITY           SKY/WX    TMP DP  RH WIND       PRES   REMARKS
CLE-HOPKINS    FAIR      56  52  86 CALM      30.22S
CLE-LAKEFRONT  FAIR      59  53  80 S6        30.19S
CUY CO. ARPT   NOT AVBL
LORAIN-ELYRIA  FAIR      54  48  80 CALM      30.21S
ASHTABULA      FAIR      50  50 100 CALM      30.21S FOG
AKRON-CANTON   FAIR      54  48  80 N3        30.21F
WOOSTER        FAIR      53  51  93 CALM      30.22S
MANSFIELD      FAIR      54  50  86 CALM      30.22S
YOUNGSTOWN     FAIR      53  51  93 CALM      30.21S
$$

OHZ042-051>053-060>062-070>072-077>081-240800-
  SOUTHWEST OHIO

CITY           SKY/WX    TMP DP  RH WIND       PRES   REMARKS
CINC-COVINGTON FAIR      64  56  75 E6        30.17F
CINC-LUNKEN    FAIR      58  58 100 NE3       30.19S
HAMILTON       FAIR      59  58  96 CALM      30.19F
DAYTON         FAIR      60  52  74 E5        30.21S
WRIGHT-PAT AFB FAIR      58  54  87 CALM      30.19F
DAYTON GENERAL FAIR      60  53  77 NE7       30.19F
WILMINGTON     FAIR      58  57  97 NE3       30.19F
$$

OHZ036-037-039>041-045>050-054>059-063>069-073>076-082>088-240800-
  CENTRAL AND SOUTHEAST OHIO

CITY           SKY/WX    TMP DP  RH WIND       PRES   REMARKS
COLUMBUS       FAIR      58  53  84 NE3       30.19F
OSU AIRPORT    FAIR      58  52  80 NE3       30.20F
BOLTON FIELD   FAIR      57  55  91 CALM      30.21S
RICKENBACK AFB FAIR      57  53  88 MISG      30.19F
NEWARK         FAIR      54  53  97 CALM      30.20S
MARION         FAIR      54  50  86 CALM      30.21F
LANCASTER      FAIR      55  54  96 CALM      30.20F
ZANESVILLE     FAIR      55  52  89 CALM      30.20F
NEW PHILLY     NOT AVBL
$$




USA.gov is the U.S. government's official web portal to all federal, state and local government web resources and services.